Other Public Products
Issued by NWS Grand Forks, ND

Home | Current Version | Previous Version | Text Only | Print | Product List | Glossary Off
Versions: 1 2 3 4 5 6 7 8 9 10 11 12 13 14 15 16 17 18 19 20 21 22 23 24 25 26 27 28 29 30 31 32 33 34 35 36 37 38 39 40 41 42 43 44 45 46 47 48 49 50

000
FPUS83 KFGF 180131
OPUFGF
PRAIRIE TO PINES WEATHER ROUNDUP
NATIONAL WEATHER SERVICE EASTERN NORTH DAKOTA/GRAND FORKS ND
700 PM CST SUN DEC 17 2017

 **SATELLITE DATA USED TO AUGMENT SKY COVER AT AUTOMATED STATIONS**
 *****  WEATHER ACROSS EASTERN NORTH DAKOTA  *****

CITY           SKY/WX    TMP DP  RH WIND       PRES   REMARKS
GRAND FORKS    FOG       17  16  95 S12       29.81F VSB 1/2 WCI   4
GRND FORKS AFB FAIR      19  17  91 S10       29.80F WCI   7
GRND FORKS NWS   N/A     21 N/A N/A S7          N/A  WCI  13
BUXTON           N/A     22  22  98 S8          N/A  WCI  12
DEVILS LAKE    FAIR      32  24  72 S15       29.74F WCI  22
FARGO          CLOUDY    30  30 100 S14       29.86F FOG     WCI  19
WAHPETON ARPT  CLOUDY    30  28  93 SE8       29.91S VSB 3/4 WCI  23
$$

 *****  WEATHER ACROSS CENTRAL AND WESTERN NORTH DAKOTA  *****

CITY           SKY/WX    TMP DP  RH WIND       PRES   REMARKS
JAMESTOWN      FAIR      30  23  75 S9        29.80F WCI  22
BISMARCK       FAIR      35  22  58 S8        29.78F
MINOT          CLOUDY    38  26  62 SW12      29.67F
MINOT AFB      FAIR      36  25  63 SW10      29.66S
GARRISON         N/A     35  28  75 SW10      29.70F
WILLISTON      CLOUDY    36  21  54 SW7       29.70S
DICKINSON      CLOUDY    34  22  61 SW10      29.71S
HETTINGER      CLOUDY    33  23  66 SW12      29.78F WCI  24
$$

 *****  OTHER OBSERVATIONS NORTHEAST NORTH DAKOTA  *****

CITY           SKY/WX    TMP DP  RH WIND       PRES   REMARKS
WALHALLA       FAIR      30  23  74 S10       29.72F WCI  21
LANGDON        NOT AVBL
CAVALIER       FAIR      19  16  86 S8        29.74F WCI   9
GRAFTON        NOT AVBL
CANDO          FAIR      27  27 100 S12       29.72F WCI  16
FORT TOTTEN      N/A     31  24  75 S9        29.95S WCI  23
ROLLA          FAIR      25  23  93 S9        29.66F WCI  15
RUGBY          NOT AVBL
 ***** THE ABOVE OBSERVATIONS ARE NON NWS ARE NOT QUALITY
        CONTROLLED AND MAY MIS-REPORT RAIN FOR SNOW...
$$

 *****  OTHER OBSERVATIONS SOUTHEAST NORTH DAKOTA *****

CITY           SKY/WX    TMP DP  RH WIND       PRES   REMARKS
COOPERSTOWN    FAIR      25  23  93 S10       29.79F WCI  15
VALLEY CITY    NOT AVBL
OAKES            N/A     25  25 100 S10       29.85F WCI  15
GWINNER          N/A     27  25  93 S9        29.86F WCI  17
SHEYENNE NWR     N/A     26  26 100 S6        29.95  WCI  19
BUFFALO          N/A     31  24  75 E12         N/A  WCI  21
WYNDMERE       NOT AVBL
 ***** THE ABOVE OBSERVATIONS ARE NON NWS ARE NOT QUALITY
       CONTROLLED AND MAY MIS-REPORT RAIN FOR SNOW...
$$

  *****  WEATHER ACROSS NORTHERN MINNESOTA  *****

CITY           SKY/WX    TMP DP  RH WIND       PRES   REMARKS
FLAG ISLAND    FAIR      10   7  85 S7        29.78F WCI   0
WARROAD        FAIR      18  14  86 S8        29.80F WCI   7
ROSEAU         FAIR      19  16  86 S14       29.79F WCI   6
HALLOCK        FAIR      18  16  93 S12       29.77F WCI   5
THF RVR FALLS  FOG       22  21  96 S12       29.84F VSB 1/2 WCI  10
HALSTAD        NOT AVBL
FOSSTON        FOG       23  23 100 S10       29.85F VSB 1/4 WCI  12
BAUDETTE       FAIR      22  18  85 S8        29.81F WCI  12
WASKISH        FAIR      18  16  93 CALM      29.84F
CROOKSTON      FOG       27  27 100 S12       29.84F VSB 1/2 WCI  16
$$
  *****  WEATHER ACROSS CENTRAL AND WEST MINNESOTA  *****

CITY           SKY/WX    TMP DP  RH WIND       PRES   REMARKS
BEMIDJI          N/A     22  21  96 SE3       29.85F FOG
PARK RAPIDS    CLOUDY    27  24  89 SW8       29.88F WCI  19
WADENA         CLOUDY    27  27 100 S7        29.90F FOG     WCI  19
DETROIT LAKES  CLOUDY    28  28 100 S13       29.88F FOG     WCI  18
MOORHEAD       CLOUDY    28  28 100 S14       29.88F FOG     WCI  17
FERGUS FALLS   CLOUDY    28  28 100 S7        29.93S FOG     WCI  21
ELBOW LAKE     CLOUDY    27  26  99 E8        29.91F FOG     WCI  18
MORRIS MN      CLOUDY    28  27  93 SE8       29.91F FOG     WCI  20
STAPLES        FOG       25  25 100 S8        29.91F VSB 1   WCI  16
WHEATON        MOCLDY    30  27  86 SE8       29.92F WCI  23
$$
  *****  WEATHER ELSEWHERE ACROSS MINNESOTA  *****

CITY           SKY/WX    TMP DP  RH WIND       PRES   REMARKS
DULUTH         CLOUDY    24  21  88 SW7       29.91S WCI  16
INTRNTL FALLS  CLOUDY    26  23  88 SW8       29.84F FOG     WCI  18
ELY            CLOUDY    23  21  93 SW8       29.88F WCI  14
CLOQUET        CLOUDY    25  19  80 CALM      29.92S
BRAINERD       CLOUDY    27  22  81 S3        29.93F
HIBBING        CLOUDY    24  22  91 SW6       29.90S WCI  17
ALEXANDRIA     CLOUDY    27  25  92 S5        29.92F FOG     WCI  22
SAINT CLOUD    MOCLDY    24  20  84 CALM      29.96R
MINNEAPOLIS    CLOUDY    27  24  89 SE5       29.98S FOG     WCI  22
$$

  *****  WEATHER ACROSS SOUTH DAKOTA  *****

CITY           SKY/WX    TMP DP  RH WIND       PRES   REMARKS
SIOUX FALLS    MOCLDY    30  28  92 CALM      29.95S
BROOKINGS      CLOUDY    34  28  79 SW5       29.93R
WATERTOWN      CLOUDY    31  31 100 S6        29.89F
HURON          CLOUDY    37  31  78 MISG      29.90F
SISSETON         N/A     32  30  92 S8        29.88F WCI  25
ABERDEEN       CLOUDY    33  28  81 S6        29.89S
MITCHELL       CLOUDY    38  29  70 S8        29.94S
PIERRE         FAIR      32  28  85 S7        29.86F
MOBRIDGE       FAIR      28  23  81 SE6       29.81F WCI  22
RAPID CITY     FAIR      30  22  72 NW8       29.83R WCI  22
$$

  *****  SOME WEATHER IN NEARBY STATES *****

CITY           SKY/WX    TMP DP  RH WIND       PRES   REMARKS
GLASGOW MT     FAIR      32  25  75 W7        29.71R
GREAT FALLS MT FAIR      36  20  52 SW23G33   29.81F
CHEYENNE WY    FAIR      31  17  56 W9        29.90R WCI  23
SCOTTSBLUFF NE FAIR      40  18  41 W14       29.88R
OMAHA NE       MOCLDY    29  23  78 CALM      30.00S
DES MOINES IA  CLOUDY    36  31  82 W7        29.98S
DAVENPORT IA   CLOUDY    38  36  92 CALM      30.01R
CHICAGO IL     CLOUDY    41  30  65 SW6       29.99R
EAU CLAIRE WI  CLOUDY    28  26  92 S5        29.97S WCI  23
LA CROSSE WI   CLOUDY    32  29  88 CALM      29.99F FOG
$$

  *****  SOME NATIONAL WEATHER *****

CITY           SKY/WX    TMP DP  RH WIND       PRES   REMARKS
LA GUARDIA NY  CLOUDY    36  25  64 E8        30.25F
RALEIGH NC     CLOUDY    49  34  56 VRB3      30.22R
ATLANTA GA     DRIZZLE   46  44  93 NE8       30.19R
NEW ORLEANS LA CLOUDY    68  68 100 S6        30.10S FOG
OKLAHOMA CITY  CLOUDY    44  42  93 S5        30.05S
ALBUQUERQUE NM FAIR      46  24  42 S14       30.03R
SALT LAKE CITY FAIR      31  24  75 W6        30.23R
LOS ANGELES CA FAIR      71  22  15 N5        29.95R
BOISE ID       CLOUDY    36  21  54 CALM      30.23R
SEATTLE WA     CLOUDY    49  43  80 S20       30.01S
$$

*** WEATHER ACROSS MANITOBA...SASKATCHEWAN AND ONTARIO ***
                ***ONTARIO***

CITY           SKY/WX    TMP DP  RH WIND       PRES   REMARKS
GERALDTON      FLURRIES  27  25  93 SW14G21   29.80F WCI  15
THUNDER BAY    CLOUDY    28  25  86 W6        29.90S WCI  22
SIOUX LOOKOUT  FLURRIES  25  23  93 SW7       29.77  WCI  17
TORONTO        CLOUDY    21  16  79 E8        30.14F WCI  12
BIG TROUT LK   FLURRIES  19  18  93 SW6       29.58F WCI  11
PICKLE LAKE    FLURRIES  23  21  93 SW12      29.70S WCI  12
DRYDEN         CLOUDY    25  23  93 SW9       29.78F WCI  15
KENORA         PTCLDY    18  16  93 S10       29.76F WCI   6
$$
                *** MANITOBA***

CITY           SKY/WX    TMP DP  RH WIND       PRES   REMARKS
BRANDON        CLOUDY    30  21  69 SW14      29.61F WCI  20
DAUPHIN        CLOUDY    32  25  74 SW18G25   29.51F WCI  20
ISLAND LAKE    PTCLDY    23  19  86 S12G20    29.48F WCI  12
PILOT MOUND      N/A     21  18  86 S13         N/A  WCI   9
THE PAS        CLOUDY    28  21  74 S12G20    29.29F WCI  18
THOMPSON       CLOUDY    19  18  93 S5        29.27F WCI  13
WINNIPEG       PTCLDY    19  14  79 S17       29.71F WCI   4
LYNN LAKE      FLURRIES  18  18 100 S6        29.10F WCI   9
CHURCHILL      CRYSTALS   1   0  92 SE6       29.46F WCI -10
GILLAM         FLURRIES  10   9  92 SE5       29.40F WCI   2
$$
                ***SASKATCHEWAN***

CITY           SKY/WX    TMP DP  RH WIND       PRES   REMARKS
ESTEVAN        CLOUDY    32  23  69 SW12G18   29.63F WCI  23
KINDERSLEY     CLOUDY    27  21  80 SW12      29.54S WCI  16
LLOYDMINSTER   PTCLDY    30  25  80 W13G20    29.43F WCI  20
PRINCE ALBERT  PTCLDY    27  18  69 W9        29.38F WCI  17
REGINA         CLOUDY    28  25  86 SW13      29.56S WCI  18
YORKTON        CLEAR     28  21  74 SW14G21   29.48F WC


USA.gov is the U.S. government's official web portal to all federal, state and local government web resources and services.